Starlink 5786

operational
NORAD ID: 56032 Int'l Des: 2023-042 Owner: SPXS Country: US Constellation: starlink
LEOCIRCULAR

Starlink 5786について

説明を読み込み中...

リアルタイム位置

3D地球を読み込み中...

次回通過

高度履歴

Altitude vs Time

uPlot chart will show altitude changes over time

軌道要素

1 56032U 23042AY 25305.58644627 .00000054 00000-0 19076-4 0 9990
2 56032 43.0043 18.8849 0001331 261.2436 98.8256 15.02531776143791
Epoch: Nov 1, 2025 • Age: 23 hours

現在のステータス

高度 562.1 km
速度 7.59 km/s
衛星直下点 38.24°N, 161.59°W
打ち上げ日 Mar 24, 2023
運用期間 2.6 years
タイプ internet

技術仕様

分類 Payload
質量 305.00 kg
乾燥質量 290.00 kg
総質量 305.00 kg
長さ 0.20 m
直径 2.80 m
スパン 9.00 m
形状 Box + pan
製造者 SPXS
バスタイプ Starlink
フェーズステータス In Orbit
所有者/国 SPXS/US

大規模コンステレーション

Loading constellations...